Regional Weather Roundup
Issued by NWS

Home | Current Version | Previous Version | Graphics & Text | Print | Product List | Glossary On
Versions: 1 2 3 4 5 6 7 8 9 10 11 12 13 14 15 16 17 18 19 20 21 22 23 24 25 26 27 28 29 30 31 32 33 34 35 36 37 38 39 40 41 42 43 44 45 46 47 48 49 50
000
ASUS45 KBOU 010210
RWRCO

WEATHER ROUNDUP FOR COLORADO
NATIONAL WEATHER SERVICE DENVER/BOULDER CO
800 PM MDT TUE JUN 30 2015

NOTE: "FAIR" INDICATES FEW OR NO CLOUDS BELOW 12000 FEET WITH NO
SIGNIFICANT WEATHER AND/OR OBSTRUCTIONS TO VISIBILITY.

COZ001>005-013-030-031-010300-
...NORTHWEST COLORADO...

CITY           SKY/WX    TMP DP  RH WIND       PRES   REMARKS
CRAIG          CLOUDY    76  49  38 SE6       30.19R
HAYDEN         MOCLDY    75  43  31 S7        30.22R
MEEKER         CLOUDY    80  43  26 CALM      30.20R
MOUNT WERNER   NOT AVBL
STEAMBOAT SPGS MOCLDY    72  47  41 N18G36    30.25R
WALDEN         CLOUDY    55  50  82 W15G26    30.43R
$$

COZ006>008-011-010300-
...WEST CENTRAL VALLEYS...

CITY           SKY/WX    TMP DP  RH WIND       PRES   REMARKS
GRAND JUNCTION CLOUDY    91  40  16 NE9       30.00S
MONTROSE       PTCLDY    86  44  23 NW22G33   30.12R
EAGLE          CLOUDY    73  57  56 NE6       30.21R
RIFLE          CLOUDY    88  40  18 W9        30.09R
DELTA          PTCLDY    92  41  17 SE16      30.04R
NUCLA          TSTM      84  43  23 N24G35    30.17R
$$

COZ017>023-064>068-010300-
...SOUTHWEST COLORADO...

CITY           SKY/WX    TMP DP  RH WIND       PRES   REMARKS
DURANGO        CLOUDY    85  46  25 SW7       30.14R
CORTEZ         CLEAR     88  47  24 W6        30.07R
PAGOSA SPRINGS CLOUDY    75  49  39 CALM      30.26S
TELLURIDE      MOCLDY    76  34  21 N3        30.41R
WOLF CREEK PAS NOT AVBL
$$

COZ009-010-012-014-032>034-037-058>063-010300-
...CENTRAL COLORADO...

CITY           SKY/WX    TMP DP  RH WIND       PRES   REMARKS
ASPEN          CLOUDY    77  46  33 CALM      30.28R
BUENA VISTA    MOCLDY    78  37  22 CALM      30.28R
COPPER MTN     CLOUDY    61  34  36 SW14      30.71R
BERTHOUD PASS  CLOUDY    46  37  71 E14G20    30.74S THUNDER
COTTONWOOD PAS NOT AVBL
GUNNISON       CLOUDY    82  39  21 CALM      30.27R
KREMMLING      MOCLDY    77  37  24 E13       30.26R
LEADVILLE      CLOUDY    65  36  34 N15G25    30.49R
SALIDA         MOCLDY    78  47  33 SE5       30.31R
SUNLIGHT       MOCLDY    64  41  42 W5        30.59R
WILKERSON PASS CLOUDY    57  37  47 E14G22    30.62S
$$

COZ069>075-010300-
...SAN LUIS VALLEY/SANGRE DE CRISTO MOUNTAINS...

CITY           SKY/WX    TMP DP  RH WIND       PRES   REMARKS
ALAMOSA        MOCLDY    77  50  38 E6        30.22R
LA VETA PASS   PTCLDY    63  32  31 MISG      30.50R
SAGUACHE       CLOUDY    79  41  25 E5G17     30.27R
$$

COZ035-036-038>040-010300-
...NORTHERN COLORADO FRONT RANGE...

CITY           SKY/WX    TMP DP  RH WIND       PRES   REMARKS
DENVER INTL AP LGT RAIN  80  50  34 W22G31    30.11R
DMNS CITY PARK   N/A     77  49  36 NW7G16    30.13S
AURORA         MOCLDY    79  52  39 NW20G28   30.15R
FRONT RANGE AP MOCLDY    81  54  39 NW21G30   30.14R
ERIE MUNI ARPT LGT RAIN  77  45  31 E17G37    30.03F
BOULDER MUN AP CLOUDY    79  48  34 SW10      30.07F
CENTENNIAL     CLOUDY    80  48  32 NW15      30.17R
BROOMFIELD     LGT RAIN  73  52  46 NW15G23   30.16R
FORT COLLINS   CLOUDY    79  54  41 S3        30.06F
LONGMONT       CLOUDY    82  48  30 SW15G26   30.06F
$$

COZ041-046-047-076>085-087-088-010300-
...PIKES PEAK/PALMER DIVIDE AND SOUTHERN FOOTHILLS...

CITY           SKY/WX    TMP DP  RH WIND       PRES   REMARKS
COLO. SPRINGS  MOCLDY    83  48  29 NW3       30.17R
A. F. ACADEMY  CLOUDY    79  50  35 N13       30.19R
ELLICOTT       MOCLDY   N/A N/A N/A SE8       30.15R
FALCON         MOCLDY    76  53  44 W3        30.24R
FORT CARSON    NOT AVBL
LIMON          PTCLDY    77  58  51 CALM      30.09R
MONUMENT HILL  CLOUDY    70  48  46 N6        30.25S
TRINIDAD       CLEAR     82  51  34 S8        30.09R
$$

COZ042>045-048>051-090-091-010300-
...NORTHEAST COLORADO...

CITY           SKY/WX    TMP DP  RH WIND       PRES   REMARKS
GREELEY ARPT   CLOUDY    81  55  41 W7        30.05R
AKRON          MOCLDY    85  55  35 CALM      30.00S
BURLINGTON     PTCLDY    85  46  25 S9        29.97S
WRAY           PTCLDY    89  54  30 SW5       29.91R
STERLING       MOCLDY    82  55  39 NW7         N/A
HOLYOKE        PTCLDY    88  59  37 CALM      29.92R
FORT MORGAN    NOT AVBL
$$

COZ086-089-092>099-010300-
...SOUTHEAST COLORADO...

CITY           SKY/WX    TMP DP  RH WIND       PRES   REMARKS
PUEBLO         PTCLDY    87  47  24 E8        30.00R
LA JUNTA       CLEAR     85  53  33 NE8       29.97R
LAMAR          CLEAR     85  58  39 NE6       29.91S
SPRINGFIELD      N/A     83  42  23 S12       30.00R
$$



USA.gov is the U.S. government's official web portal to all federal, state and local government web resources and services.